Weather in Nizhneye Alkeyevo

Russia / Republic of Tatarstan     54°46′43″N   50°02′03″E
temp.,
°C
wind,
m/s
gust,
m/s
humid.,
%
clouds,
%
prec.,
mm/h
press.,
hPa
HPBL,
m
17 may, tue
tue1700:00+7w22885 0.0 100114
03:00+6wnw22925 0.0 100119
06:00+9nw1285100 0.0 1000151
09:00+12ssw2275100 0.2 1000979
12:00+7w479499 3.2 1002303
15:00+12w467098 3.5 10011251
18:00+10wsw3582100 0.7 1001305
21:00+7wsw229296 0.9 100220
18 may, wed
wed1800:00+5ssw229313 0.0 100122
03:00+4sw22945 0.0 100116
06:00+7wsw23877 0.0 1001177
09:00+11w347399 0.3 1001931
12:00+10wnw5774100 0.3 1002877
15:00+8nw5895100 2.6 1003539
18:00+8nnw378983 1.2 1005522
21:00+7w259587 1.2 1007118
19 may, thu
thu1900:00+5wnw349680 0.0 100875
03:00+6w228883 0.2 100826
06:00+6w4792100 0.1 1009373
09:00+6w4793100 0.3 1009918
12:00+9nw6774100 0.4 10101181
15:00+9nw4668100 0.8 10101324
18:00+9wsw127495 0.1 100987
21:00+6sw2290100 1.0 101058
20 may, fri
fri2000:00+4nnw4497100 3.8 1009653
03:00+4nnw4796100 4.4 1009700
06:00+4nw479134 0.0 1010466
09:00+7nw5774100 0.6 10101174
12:00+6nnw688197 1.2 1010953
15:00+8nnw697499 2.0 10101392
18:00+7nnw71178100 1.1 1011784
21:00+5nnw5118793 1.1 1012494
21 may, sat
sat2100:00+3nw411935 0.0 1012382
03:00+2wnw37955 0.0 1012143
06:00+5wnw48847 0.0 1012316
09:00+9wnw46636 0.1 10111061
12:00+10nw5651100 0.1 10101918
15:00+11nnw465185 0.4 10091974
18:00+9nnw346834 0.2 1008181
21:00+5nne11755 0.2 100810